Weather History for KDBQ - May, 2013

Change the Weather History Date:

Monday, May 27, 2013

  Actual Average Record
Temperature  
Mean Temperature 58 °F 62 °F  
Max Temperature 63 °F 73 °F 94 °F (1874)
Min Temperature 53 °F 52 °F 35 °F (1961)
Degree Days  
Heating Degree Days 7 4  
Month to date heating degree days 216 209  
Since 1 July heating degree days 7256 7030  
Cooling Degree Days 0 2  
Month to date cooling degree days 24 24  
Year to date cooling degree days 32 29  
Growing Degree Days 8 (Base 50)    
Moisture  
Dew Point 57 °F    
Average Humidity 97    
Maximum Humidity 100    
Minimum Humidity 93    
Precipitation  
Precipitation 0.03 in 0.13 in 2.36 in (1938)
Month to date precipitation 5.48 3.63  
Year to date precipitation 20.01 12.31  
Snow  
Snow 0.00 in 0.00 in - ()
Month to date snowfall 0.0 0.1  
Since 1 July snowfall 54.5 42.0  
Snow Depth 0.00 in    
Sea Level Pressure  
Sea Level Pressure 29.92 in    
Wind  
Wind Speed 10 mph (East)    
Max Wind Speed 17 mph    
Max Gust Speed 23 mph    
Visibility 2 miles    
Events Fog , Rain    
T = Trace of Precipitation, MM = Missing Value Source: NWS Daily Summary

Daily Weather History Graph

Daily Weather History Graph

Search for Another Location

Airport or City:

Trip Planner

Search our weather history database for the weather conditions in past years. The results will help you decide how hot, cold, wet, or windy it might be!

Date:

Astronomy

May. 27, 2013 Rise Set
Actual Time 5:31 AM CDT 8:29 PM CDT
Civil Twilight 4:57 AM CDT 9:03 PM CDT
Nautical Twilight 4:15 AM CDT 9:45 PM CDT
Astronomical Twilight 3:25 AM CDT 10:36 PM CDT
Moon 11:07 PM CDT (5/27) 8:09 AM CDT (5/27)
Length of Visible Light 16h 05m
Length of Day
14h 58m
Waning Gibbous, 91% of the Moon is Illuminated
May 27
Waning Gibbous
May 31
Last Quarter
Jun 8
New
Jun 16
First Quarter
Jun 23
Full

Hourly Weather History & Observations

Time (CDT) Temp. Dew Point Humidity Pressure Visibility Wind Dir Wind Speed Gust Speed Precip Events Conditions
12:53 AM 55.0 °F 54.0 °F 96% 30.07 in 5.0 mi East 12.7 mph - N/A   Overcast
1:53 AM 54.0 °F 54.0 °F 100% 30.05 in 4.0 mi East 11.5 mph - N/A   Overcast
2:53 AM 54.0 °F 54.0 °F 100% 30.04 in 3.0 mi East 11.5 mph - N/A   Overcast
3:20 AM 53.6 °F 53.6 °F 100% 30.03 in 2.5 mi East 9.2 mph - N/A   Overcast
3:42 AM 53.6 °F 53.6 °F 100% 30.01 in 2.0 mi East 10.4 mph - N/A   Overcast
3:53 AM 53.1 °F 53.1 °F 100% 30.03 in 2.0 mi East 8.1 mph - N/A   Overcast
4:32 AM 53.6 °F 53.6 °F 100% 29.99 in 1.8 mi East 10.4 mph - N/A   Overcast
4:53 AM 53.1 °F 53.1 °F 100% 30.01 in 1.5 mi East 8.1 mph - N/A   Overcast
5:31 AM 53.6 °F 53.6 °F 100% 29.99 in 0.8 mi East 8.1 mph - N/A   Overcast
5:53 AM 53.1 °F 53.1 °F 100% 29.99 in 0.2 mi East 8.1 mph - N/A Fog Fog
6:04 AM 53.6 °F 53.6 °F 100% 29.99 in 0.2 mi East 6.9 mph - N/A Fog Fog
6:53 AM 53.1 °F 53.1 °F 100% 30.01 in 0.2 mi East 5.8 mph - N/A Fog Fog
7:11 AM 53.6 °F 53.6 °F 100% 30.00 in 0.2 mi East 5.8 mph - N/A Fog Fog
7:53 AM 54.0 °F 54.0 °F 100% 30.02 in 0.2 mi SE 4.6 mph - N/A Fog Fog
8:51 AM 53.6 °F 53.6 °F 100% 29.98 in 0.2 mi ESE 9.2 mph - N/A Fog Fog
8:53 AM 54.0 °F 54.0 °F 100% 29.99 in 0.2 mi ESE 10.4 mph - N/A Fog Fog
9:24 AM 55.4 °F 55.4 °F 100% 29.94 in 0.2 mi ESE 12.7 mph 20.7 mph N/A Fog Fog
9:53 AM 55.9 °F 55.9 °F 100% 29.93 in 0.2 mi ESE 15.0 mph 20.7 mph N/A Fog Fog
10:09 AM 55.4 °F 55.4 °F 100% 29.92 in 0.2 mi SE 15.0 mph 21.9 mph N/A Fog Fog
10:18 AM 57.2 °F 57.2 °F 100% 29.91 in 0.2 mi ESE 15.0 mph 21.9 mph N/A Fog Fog
10:26 AM 57.2 °F 57.2 °F 100% 29.92 in 0.5 mi ESE 11.5 mph 23.0 mph N/A Fog Fog
10:53 AM 57.0 °F 57.0 °F 100% 29.93 in 0.5 mi SE 13.8 mph 18.4 mph 0.01 in Fog Fog
11:14 AM 57.2 °F 57.2 °F 100% 29.93 in 1.5 mi ESE 12.7 mph 18.4 mph N/A   Overcast
11:36 AM 57.2 °F 57.2 °F 100% 29.93 in 2.0 mi ESE 12.7 mph - N/A   Overcast
11:53 AM 57.9 °F 57.9 °F 100% 29.94 in 2.0 mi SE 10.4 mph - 0.01 in   Overcast
12:35 PM 60.8 °F 59.0 °F 94% 29.93 in 3.0 mi SE 12.7 mph - N/A   Overcast
12:53 PM 60.1 °F 59.0 °F 96% 29.93 in 3.0 mi ESE 13.8 mph - N/A   Overcast
1:40 PM 62.6 °F 60.8 °F 94% 29.90 in 4.0 mi ESE 11.5 mph - 0.00 in Rain Light Rain
1:53 PM 62.1 °F 60.1 °F 93% 29.91 in 4.0 mi ESE 9.2 mph - 0.01 in   Overcast
2:53 PM 62.1 °F 61.0 °F 96% 29.89 in 3.0 mi East 10.4 mph - 0.01 in Rain Light Rain
3:38 PM 62.6 °F 60.8 °F 94% 29.86 in 2.5 mi East 13.8 mph - 0.00 in   Overcast
3:53 PM 62.1 °F 61.0 °F 96% 29.86 in 2.0 mi East 15.0 mph - 0.00 in   Overcast
4:28 PM 62.6 °F 60.8 °F 94% 29.85 in 3.0 mi East 11.5 mph - 0.01 in   Overcast
4:53 PM 62.1 °F 61.0 °F 96% 29.84 in 3.0 mi ESE 13.8 mph 19.6 mph 0.01 in   Overcast
5:43 PM 60.8 °F 60.8 °F 100% 29.84 in 2.5 mi East 12.7 mph - N/A   Overcast
5:53 PM 60.1 °F 60.1 °F 100% 29.85 in 1.8 mi East 11.5 mph - N/A   Overcast
6:10 PM 59.0 °F 59.0 °F 100% 29.83 in 0.8 mi East 13.8 mph - N/A   Overcast
6:41 PM 59.0 °F 59.0 °F 100% 29.83 in 1.0 mi East 9.2 mph - N/A   Overcast
6:50 PM 57.2 °F 57.2 °F 100% 29.83 in 0.8 mi East 8.1 mph - N/A   Overcast
6:53 PM 57.9 °F 57.9 °F 100% 29.84 in 0.8 mi East 8.1 mph - N/A   Overcast
7:08 PM 57.2 °F 57.2 °F 100% 29.84 in 1.0 mi East 8.1 mph - N/A   Overcast
7:53 PM 57.9 °F 57.9 °F 100% 29.85 in 0.8 mi ENE 11.5 mph - N/A   Overcast
8:02 PM 57.2 °F 57.2 °F 100% 29.85 in 1.0 mi East 8.1 mph - N/A   Overcast
8:17 PM 57.2 °F 57.2 °F 100% 29.85 in 0.8 mi ENE 8.1 mph - N/A   Overcast
8:37 PM 57.2 °F 57.2 °F 100% 29.84 in 1.2 mi East 9.2 mph - N/A   Overcast
8:53 PM 57.0 °F 57.0 °F 100% 29.84 in 1.2 mi East 9.2 mph - N/A   Overcast
9:53 PM 57.0 °F 57.0 °F 100% 29.85 in 1.5 mi ENE 8.1 mph - N/A   Overcast
10:53 PM 57.0 °F 57.0 °F 100% 29.85 in 2.0 mi East 9.2 mph - N/A   Overcast
11:38 PM 57.2 °F 57.2 °F 100% 29.83 in 1.8 mi East 8.1 mph - N/A   Overcast
11:53 PM 57.0 °F 57.0 °F 100% 29.83 in 1.8 mi East 6.9 mph - N/A   Overcast